Temp
-6 -6 -6 -6 -6 -6 -7 -7 -7 -7 -7 -7 -7 -7 -7 -7 -7 -8 -8 -8 -8 -9 -9 -9 -9 -9 -9 -9 -9 -10 -10 -10 -10 -10 -10 -10 -10 -11 -11 -11 -11 -11 -11 -12 -11 -11 -11 -11 -11
-6 -6 -6 -6 -7 -7 -7 -7 -7 -7 -7 -7 -7 -7 -7 -7 -7 -7 -8 -9 -8 -9 -9 -9 -9 -9 -10 -9 -10 -10 -10 -10 -10 -10 -10 -10 -11 -11 -11 -11 -11 -11 -11 -12 -12 -11 -11 -11 -11
-7 -7 -7 -7 -7 -7 -8 -7 -7 -7 -7 -7 -7 -7 -7 -7 -7 -7 -8 -9 -8 -9 -9 -10 -10 -9 -10 -10 -10 -10 -10 -10 -10 -10 -10 -11 -11 -11 -11 -11 -11 -11 -11 -12 -12 -12 -12 -11 -11
-7 -7 -7 -7 -8 -7 -7 -7 -7 -7 -7 -7 -7 -7 -7 -7 -7 -7 -8 -8 -8 -9 -9 -9 -10 -10 -9 -10 -10 -10 -10 -10 -10 -10 -10 -11 -11 -11 -11 -11 -11 -11 -11 -11 -12 -12 -12 -12 -12
-7 -7 -7 -7 -8 -7 -7 -7 -7 -7 -7 -8 -8 -7 -8 -8 -8 -8 -7 -8 -8 -9 -9 -9 -10 -10 -10 -10 -10 -10 -10 -10 -10 -10 -11 -11 -11 -11 -11 -11 -11 -11 -11 -11 -12 -12 -12 -12 -12
-7 -7 -7 -8 -8 -7 -7 -7 -7 -7 -7 -8 -8 -8 -7 -8 -8 -8 -8 -8 -8 -9 -9 -9 -10 -10 -10 -10 -10 -10 -10 -11 -11 -11 -11 -11 -11 -11 -11 -11 -11 -11 -11 -11 -11 -11 -11 -12 -12
-7 -7 -7 -7 -8 -7 -7 -7 -7 -7 -7 -8 -8 -8 -8 -8 -8 -8 -9 -9 -8 -9 -9 -9 -9 -10 -10 -10 -10 -10 -11 -11 -11 -11 -11 -11 -11 -11 -11 -11 -11 -11 -11 -12 -12 -12 -11 -11 -12
-8 -8 -7 -8 -8 -9 -7 -7 -7 -7 -7 -8 -8 -8 -8 -8 -8 -8 -9 -9 -9 -9 -9 -9 -9 -10 -10 -11 -10 -11 -11 -11 -11 -11 -11 -11 -11 -11 -11 -11 -12 -11 -11 -12 -11 -11 -11 -12 -12
-8 -8 -8 -8 -8 -8 -7 -8 -8 -8 -8 -8 -8 -8 -8 -8 -9 -8 -9 -9 -9 -9 -9 -10 -9 -10 -10 -11 -11 -11 -11 -11 -11 -11 -12 -11 -11 -12 -12 -12 -12 -12 -12 -12 -12 -12 -12 -12 -11
-8 -8 -8 -8 -8 -8 -8 -8 -8 -8 -8 -7 -7 -8 -8 -8 -9 -9 -8 -9 -9 -9 -10 -9 -10 -10 -11 -11 -11 -11 -11 -11 -11 -11 -12 -12 -12 -12 -12 -12 -12 -12 -12 -12 -12 -12 -12 -12 -12
-8 -8 -8 -8 -8 -8 -8 -8 -8 -8 -8 -8 -8 -8 -8 -8 -8 -9 -8 -9 -10 -9 -9 -10 -10 -10 -11 -11 -11 -11 -11 -11 -11 -11 -11 -12 -12 -12 -12 -12 -12 -12 -12 -12 -12 -12 -12 -12 -12
-8 -8 -8 -8 -8 -8 -8 -8 -8 -8 -8 -8 -8 -8 -8 -8 -9 -9 -9 -9 -9 -9 -9 -10 -11 -11 -11 -11 -11 -11 -11 -11 -11 -11 -11 -11 -12 -12 -12 -12 -12 -12 -12 -12 -12 -12 -12 -12 -12
-8 -8 -8 -8 -8 -8 -8 -8 -8 -8 -8 -8 -8 -9 -8 -8 -9 -9 -9 -9 -9 -9 -9 -9 -10 -10 -10 -10 -11 -11 -11 -12 -12 -11 -11 -11 -11 -12 -12 -12 -12 -12 -12 -12 -12 -12 -13 -12 -12
-8 -8 -8 -9 -9 -9 -8 -9 -9 -8 -9 -9 -8 -9 -8 -8 -9 -9 -9 -9 -8 -8 -8 -9 -9 -10 -10 -10 -11 -11 -11 -11 -11 -11 -12 -12 -12 -12 -12 -12 -12 -12 -12 -12 -12 -12 -12 -12 -13
-9 -8 -8 -9 -9 -9 -9 -8 -8 -9 -8 -8 -9 -9 -8 -8 -8 -8 -8 -8 -8 -8 -8 -8 -9 -10 -10 -10 -10 -11 -11 -11 -12 -12 -12 -12 -12 -12 -12 -12 -12 -12 -12 -12 -12 -12 -12 -12 -12
-9 -9 -9 -9 -9 -9 -9 -8 -9 -9 -8 -8 -8 -8 -9 -8 -8 -8 -8 -8 -8 -8 -8 -9 -9 -9 -10 -10 -10 -10 -10 -11 -12 -11 -12 -12 -12 -12 -12 -12 -12 -12 -12 -12 -13 -13 -13 -12 -12
-9 -9 -9 -9 -10 -9 -8 -8 -8 -9 -8 -8 -8 -8 -8 -8 -8 -8 -8 -8 -8 -8 -8 -8 -9 -9 -10 -10 -10 -11 -10 -11 -11 -11 -13 -13 -12 -12 -12 -12 -12 -13 -13 -13 -13 -13 -13 -13 -13
-9 -9 -9 -9 -10 -8 -8 -8 -8 -8 -8 -8 -8 -8 -8 -8 -8 -8 -8 -8 -8 -8 -8 -9 -9 -9 -10 -10 -11 -11 -11 -11 -12 -12 -13 -13 -13 -13 -13 -12 -12 -13 -13 -13 -13 -13 -13 -13 -13
-9 -9 -9 -9 -10 -10 -9 -8 -7 -8 -7 -8 -9 -8 -8 -7 -7 -8 -8 -8 -8 -8 -9 -9 -9 -9 -9 -10 -11 -11 -11 -12 -12 -12 -12 -12 -12 -12 -13 -12 -13 -12 -13 -13 -12 -13 -13 -13 -13
-10 -10 -10 -10 -10 -10 -9 -8 -8 -8 -7 -8 -8 -8 -8 -8 -8 -8 -8 -8 -8 -8 -8 -9 -9 -9 -9 -10 -10 -10 -11 -11 -12 -12 -12 -12 -13 -12 -12 -12 -13 -12 -12 -13 -13 -13 -13 -12 -13
-10 -11 -10 -10 -10 -10 -9 -8 -8 -8 -8 -8 -8 -8 -8 -8 -8 -8 -8 -8 -8 -8 -8 -9 -9 -10 -10 -10 -10 -11 -11 -11 -12 -12 -12 -13 -13 -12 -12 -12 -12 -12 -12 -12 -13 -13 -13 -12 -13
-10 -11 -11 -11 -11 -10 -9 -7 -8 -8 -8 -8 -8 -8 -8 -8 -8 -8 -8 -8 -9 -8 -9 -9 -9 -10 -10 -10 -10 -11 -11 -11 -12 -12 -13 -13 -13 -13 -12 -12 -12 -12 -11 -11 -12 -12 -12 -13 -13
-10 -12 -11 -11 -11 -10 -10 -9 -8 -8 -8 -8 -8 -8 -9 -9 -8 -8 -8 -8 -8 -9 -9 -9 -10 -10 -11 -11 -10 -11 -11 -11 -12 -12 -12 -13 -13 -13 -13 -13 -12 -12 -12 -13 -13 -13 -13 -13 -13
-12 -12 -12 -12 -11 -10 -9 -9 -8 -9 -9 -9 -9 -9 -9 -9 -9 -9 -9 -9 -9 -9 -10 -10 -10 -10 -11 -11 -11 -11 -11 -12 -12 -12 -13 -13 -13 -13 -13 -13 -13 -13 -12 -13 -13 -13 -13 -13 -13
-12 -12 -12 -12 -11 -10 -10 -10 -9 -9 -9 -9 -9 -9 -10 -10 -10 -10 -10 -10 -10 -10 -10 -11 -11 -11 -11 -12 -12 -12 -12 -12 -12 -13 -13 -13 -13 -13 -13 -13 -13 -13 -12 -14 -13 -13 -13 -13 -13
-13 -13 -13 -12 -12 -12 -12 -10 -10 -10 -10 -10 -10 -10 -10 -10 -11 -11 -11 -11 -11 -11 -11 -11 -11 -12 -12 -12 -13 -13 -13 -13 -13 -13 -13 -13 -12 -13 -14 -13 -12 -13 -13 -14 -14 -15 -15 -14 -15
-13 -13 -14 -13 -13 -12 -12 -11 -11 -11 -11 -11 -11 -11 -11 -11 -11 -11 -12 -12 -12 -12 -12 -12 -12 -12 -13 -13 -13 -13 -14 -14 -14 -14 -14 -13 -14 -14 -13 -13 -14 -14 -13 -17 -16 -16 -16 -16 -16
-14 -14 -14 -14 -13 -13 -12 -12 -12 -14 -13 -11 -11 -11 -12 -12 -12 -12 -12 -12 -12 -12 -12 -13 -13 -13 -13 -13 -14 -14 -14 -15 -15 -14 -14 -14 -14 -14 -14 -15 -14 -15 -15 -18 -18 -18 -17 -17 -17
-14 -15 -15 -16 -15 -15 -14 -11 -14 -14 -15 -14 -12 -12 -12 -12 -12 -12 -12 -13 -13 -13 -13 -13 -13 -14 -14 -14 -15 -15 -15 -15 -15 -15 -15 -15 -15 -15 -14 -15 -18 -18 -17 -17 -17 -17 -18 -17 -17
-15 -15 -16 -15 -15 -16 -15 -11 -14 -14 -15 -14 -13 -14 -14 -14 -14 -14 -14 -14 -13 -13 -14 -14 -14 -15 -15 -15 -15 -16 -16 -15 -16 -16 -16 -16 -15 -16 -17 -17 -17 -17 -17 -18 -18 -18 -19 -19 -20
Height
5905 5905 5904 5904 5907 5905 5909 5905 5903 5901 5899 5897 5895 5893 5892 5888 5887 5888 5883 5879 5877 5875 5873 5872 5870 5868 5866 5865 5863 5862 5860 5859 5857 5855 5853 5853 5853 5852 5851 5850 5850 5850 5850 5849 5848 5849 5851 5851 5851
5904 5903 5903 5902 5905 5910 5907 5903 5901 5899 5898 5895 5893 5891 5889 5886 5883 5881 5879 5877 5874 5872 5871 5869 5867 5866 5864 5863 5862 5861 5859 5857 5856 5854 5852 5852 5851 5850 5850 5849 5848 5848 5848 5848 5848 5849 5849 5850 5851
5902 5901 5901 5901 5902 5907 5903 5899 5898 5897 5895 5893 5891 5889 5887 5885 5881 5878 5875 5872 5871 5869 5867 5865 5864 5864 5862 5860 5859 5858 5857 5856 5854 5853 5851 5850 5850 5850 5849 5849 5848 5847 5848 5847 5847 5848 5848 5849 5850
5900 5900 5900 5899 5901 5898 5898 5896 5894 5893 5891 5889 5887 5886 5886 5883 5879 5875 5873 5869 5867 5867 5864 5863 5862 5860 5859 5857 5856 5855 5854 5853 5853 5851 5849 5848 5848 5848 5847 5848 5847 5848 5847 5847 5848 5848 5848 5849 5850
5897 5897 5897 5897 5896 5894 5893 5892 5891 5888 5887 5885 5883 5881 5880 5881 5877 5872 5870 5867 5864 5863 5862 5860 5859 5857 5856 5854 5853 5851 5851 5851 5850 5849 5848 5847 5846 5846 5846 5846 5847 5847 5847 5848 5848 5848 5848 5849 5850
5893 5894 5895 5897 5897 5889 5889 5889 5888 5885 5884 5881 5879 5878 5876 5873 5871 5868 5866 5863 5860 5858 5858 5857 5855 5854 5853 5852 5850 5849 5848 5848 5847 5847 5846 5845 5844 5843 5844 5844 5844 5845 5845 5846 5847 5847 5848 5849 5849
5889 5890 5891 5892 5892 5884 5885 5884 5883 5881 5880 5876 5874 5874 5868 5869 5866 5863 5861 5859 5857 5854 5853 5854 5852 5851 5849 5848 5847 5846 5845 5845 5845 5844 5843 5842 5841 5841 5841 5841 5841 5843 5844 5844 5845 5846 5847 5848 5847
5884 5886 5887 5887 5886 5884 5881 5879 5878 5876 5875 5872 5869 5869 5867 5861 5860 5858 5855 5853 5852 5851 5849 5848 5848 5847 5845 5844 5843 5843 5842 5842 5842 5841 5840 5839 5839 5838 5837 5838 5839 5840 5841 5842 5842 5843 5843 5843 5845
5880 5882 5882 5883 5880 5877 5877 5875 5872 5871 5871 5867 5864 5862 5860 5857 5854 5853 5849 5846 5846 5846 5845 5844 5844 5842 5841 5840 5839 5839 5839 5839 5838 5838 5838 5837 5836 5835 5834 5835 5835 5835 5836 5836 5837 5837 5837 5839 5839
5874 5876 5877 5875 5874 5872 5871 5870 5868 5866 5865 5860 5861 5859 5853 5854 5848 5844 5842 5839 5839 5840 5840 5840 5839 5839 5837 5836 5836 5835 5835 5835 5835 5835 5835 5835 5834 5832 5832 5831 5832 5832 5831 5831 5831 5831 5832 5833 5835
5868 5871 5869 5870 5868 5867 5867 5863 5862 5861 5864 5857 5851 5853 5852 5845 5842 5840 5835 5832 5833 5834 5834 5834 5833 5834 5833 5832 5833 5832 5831 5832 5831 5832 5832 5832 5831 5830 5829 5828 5828 5827 5828 5827 5827 5827 5827 5828 5828
5861 5863 5863 5863 5861 5863 5860 5858 5856 5855 5858 5853 5850 5847 5846 5844 5840 5835 5830 5827 5827 5827 5828 5828 5828 5828 5829 5828 5828 5827 5828 5827 5827 5827 5827 5827 5826 5826 5824 5825 5824 5823 5822 5823 5823 5822 5823 5823 5824
5853 5856 5855 5855 5855 5855 5852 5852 5848 5849 5849 5844 5843 5841 5840 5838 5835 5830 5826 5823 5821 5822 5820 5822 5823 5822 5822 5822 5823 5822 5823 5822 5821 5822 5822 5821 5821 5821 5820 5820 5819 5819 5818 5819 5819 5820 5819 5818 5820
5846 5849 5849 5848 5849 5846 5844 5843 5841 5845 5837 5838 5837 5833 5830 5830 5828 5825 5822 5819 5816 5816 5815 5814 5816 5817 5817 5816 5817 5817 5816 5815 5815 5816 5815 5815 5815 5816 5814 5813 5812 5813 5812 5813 5812 5813 5813 5813 5813
5839 5838 5842 5842 5840 5840 5834 5833 5834 5834 5824 5827 5828 5824 5821 5819 5820 5818 5815 5813 5811 5810 5809 5809 5810 5810 5811 5811 5811 5811 5809 5809 5809 5810 5809 5810 5808 5809 5807 5807 5806 5807 5807 5806 5806 5806 5805 5805 5806
5830 5832 5834 5835 5828 5830 5828 5828 5828 5825 5815 5810 5814 5812 5811 5809 5810 5809 5808 5807 5805 5804 5803 5803 5803 5803 5805 5804 5804 5804 5803 5803 5802 5802 5803 5803 5802 5801 5801 5800 5800 5801 5799 5799 5799 5798 5798 5798 5798
5822 5823 5825 5824 5821 5817 5817 5819 5819 5817 5811 5811 5809 5805 5803 5803 5803 5801 5801 5800 5798 5797 5796 5796 5797 5796 5797 5796 5796 5796 5795 5797 5795 5796 5797 5795 5795 5795 5794 5791 5792 5793 5790 5790 5791 5790 5790 5790 5789
5814 5813 5813 5814 5815 5811 5806 5806 5809 5805 5804 5803 5801 5798 5797 5796 5796 5795 5793 5792 5791 5791 5790 5790 5790 5789 5789 5788 5789 5789 5789 5790 5790 5790 5789 5788 5787 5786 5785 5783 5784 5781 5780 5780 5780 5781 5780 5779 5779
5802 5803 5804 5807 5805 5800 5799 5797 5797 5797 5796 5796 5794 5791 5790 5789 5788 5787 5787 5786 5785 5785 5784 5783 5784 5783 5782 5783 5782 5781 5782 5781 5780 5780 5780 5780 5779 5777 5775 5773 5775 5773 5770 5770 5770 5769 5769 5768 5770
5789 5790 5794 5796 5794 5789 5788 5787 5787 5788 5788 5788 5786 5785 5785 5783 5781 5781 5781 5779 5779 5779 5778 5778 5777 5776 5774 5775 5775 5775 5773 5774 5773 5773 5773 5771 5769 5769 5768 5766 5766 5760 5757 5761 5762 5759 5758 5756 5757
5776 5779 5780 5781 5781 5781 5778 5776 5779 5779 5780 5780 5780 5779 5777 5776 5775 5774 5773 5772 5772 5771 5770 5770 5769 5768 5767 5766 5767 5767 5766 5765 5764 5763 5762 5762 5761 5762 5760 5759 5758 5742 5747 5751 5750 5747 5745 5744 5745
5766 5765 5765 5765 5768 5772 5772 5764 5771 5771 5771 5772 5773 5772 5771 5770 5768 5767 5766 5766 5765 5763 5763 5762 5762 5760 5759 5759 5759 5758 5758 5756 5755 5754 5753 5752 5752 5753 5751 5749 5747 5745 5740 5737 5737 5732 5732 5731 5730
5752 5752 5752 5755 5758 5761 5763 5763 5763 5761 5762 5762 5766 5763 5762 5762 5761 5760 5759 5758 5756 5755 5755 5754 5753 5752 5751 5750 5749 5747 5746 5746 5745 5743 5742 5741 5741 5742 5741 5739 5736 5734 5732 5730 5728 5725 5721 5717 5715
5741 5741 5745 5747 5749 5752 5755 5755 5758 5754 5751 5750 5753 5753 5752 5751 5750 5750 5750 5749 5748 5747 5746 5745 5744 5742 5741 5740 5739 5737 5736 5734 5734 5733 5733 5732 5730 5729 5728 5725 5722 5721 5716 5713 5712 5711 5704 5701 5701
5731 5733 5738 5738 5739 5743 5747 5745 5746 5745 5744 5744 5743 5743 5742 5741 5740 5740 5739 5739 5738 5737 5737 5735 5734 5733 5732 5731 5729 5728 5727 5725 5723 5722 5722 5721 5717 5714 5714 5712 5704 5705 5698 5696 5690 5693 5692 5689 5687
5724 5725 5727 5729 5733 5734 5731 5733 5735 5735 5736 5733 5733 5733 5734 5732 5731 5730 5729 5728 5727 5726 5725 5724 5723 5721 5720 5718 5717 5716 5715 5714 5713 5711 5710 5709 5695 5699 5699 5692 5680 5689 5687 5681 5681 5679 5679 5677 5671
5713 5715 5720 5716 5718 5719 5723 5726 5726 5721 5724 5723 5720 5723 5723 5722 5721 5719 5718 5717 5715 5713 5712 5712 5710 5709 5708 5706 5705 5703 5703 5702 5701 5700 5700 5696 5686 5689 5688 5680 5679 5676 5672 5669 5666 5665 5666 5664 5663
5704 5704 5706 5707 5706 5708 5713 5715 5718 5716 5704 5704 5709 5710 5710 5709 5707 5706 5704 5702 5701 5700 5700 5699 5697 5696 5694 5693 5692 5690 5688 5687 5687 5686 5686 5684 5681 5677 5671 5665 5664 5663 5661 5660 5660 5657 5655 5654 5651
5690 5693 5693 5693 5693 5695 5697 5702 5708 5700 5698 5694 5691 5692 5694 5694 5693 5692 5691 5688 5686 5686 5684 5683 5682 5681 5680 5679 5678 5677 5676 5675 5673 5672 5671 5671 5669 5666 5661 5657 5655 5653 5653 5648 5646 5644 5641 5640 5640
5676 5678 5678 5677 5684 5679 5678 5684 5698 5694 5685 5681 5684 5681 5677 5678 5677 5677 5675 5674 5672 5671 5670 5669 5667 5666 5666 5666 5665 5664 5663 5662 5661 5660 5659 5656 5655 5653 5652 5651 5648 5645 5640 5637 5632 5631 5630 5626 5623
Wind_Speed
10 11 13 13 13 14 4 10 9 12 16 21 23 20 17 15 18 16 24 23 24 23 24 24 24 18 12 13 13 14 13 11 11 10 10 11 12 11 8 6 6 5 6 4 2 3 4 3 2
12 12 14 15 12 6 13 13 11 14 18 21 25 24 20 20 23 24 23 22 24 23 22 24 22 18 12 11 12 12 12 9 10 10 8 9 11 10 9 7 6 6 5 4 3 2 2 3 3
14 14 15 15 12 7 13 13 16 22 24 21 20 23 22 23 25 27 26 24 23 23 23 23 22 20 14 12 13 13 13 9 10 10 9 8 10 9 10 9 7 6 6 5 3 3 2 3 4
15 16 16 15 9 17 15 17 21 24 25 24 23 25 23 24 31 27 27 28 26 24 24 24 26 24 19 15 14 14 13 10 12 12 14 9 9 8 8 9 8 6 5 5 6 6 5 5 5
18 18 17 18 18 21 19 20 22 23 25 25 27 28 29 28 30 29 22 26 29 27 26 26 26 25 21 18 18 16 15 12 14 16 15 12 10 8 8 10 8 6 6 6 7 8 8 8 8
20 20 17 11 16 27 25 24 22 26 30 31 30 29 33 35 34 29 24 23 27 27 25 26 26 26 24 21 19 17 16 14 15 16 18 14 12 10 9 9 9 7 6 7 8 9 10 11 11
22 22 18 18 19 31 26 24 25 31 32 32 35 36 40 37 38 33 27 25 24 27 25 25 27 24 24 23 21 19 18 17 18 18 18 15 14 13 11 11 9 9 9 9 10 10 11 13 14
24 23 22 21 21 21 27 26 31 32 30 32 35 38 39 45 42 40 29 26 26 26 25 26 25 26 25 24 23 21 21 19 19 21 19 18 16 15 14 13 12 10 11 12 12 12 13 14 16
27 25 23 22 25 30 28 30 32 31 33 34 37 41 43 42 40 39 33 27 25 26 25 25 24 26 26 25 24 23 21 21 21 22 21 20 18 18 18 17 16 15 13 14 16 15 15 16 16
29 27 25 28 28 30 29 31 33 34 36 41 40 42 48 43 42 40 37 28 25 24 23 24 25 26 26 27 25 27 24 23 22 24 23 24 21 22 22 22 19 20 19 18 19 19 19 19 20
31 29 30 30 31 30 31 34 34 33 33 40 48 44 44 46 44 39 38 32 24 23 20 23 26 27 27 27 27 29 27 26 25 26 27 26 27 26 25 24 24 23 24 22 22 23 22 22 22
35 31 33 33 34 30 34 36 37 40 38 40 44 46 47 44 40 38 35 30 26 21 20 21 25 28 27 28 27 29 29 29 27 27 28 28 31 30 29 27 28 28 27 26 26 26 26 26 26
37 32 35 35 35 33 35 35 39 42 42 46 48 49 48 44 38 36 34 25 22 20 24 25 23 27 28 31 30 32 31 32 30 29 31 33 33 33 33 31 31 32 32 30 30 31 29 28 29
38 36 35 35 33 36 41 40 41 42 50 51 50 52 47 43 38 33 28 23 22 22 24 29 28 29 28 31 33 33 36 36 35 33 33 36 36 35 36 34 34 34 34 33 33 32 33 34 33
40 40 37 35 38 38 43 50 49 50 60 54 48 48 41 39 32 30 26 27 25 24 26 26 29 30 29 31 32 34 37 38 37 35 36 35 40 39 38 36 38 36 36 35 35 35 36 36 37
43 42 40 39 45 43 47 52 50 53 61 64 48 34 34 36 27 27 26 29 29 27 27 28 29 31 29 30 33 36 37 37 40 39 37 38 41 41 41 40 38 38 40 40 37 38 38 38 39
46 46 45 47 50 53 55 54 54 49 52 44 34 32 32 31 26 26 26 30 31 31 30 27 27 30 29 31 33 36 38 37 40 40 39 42 42 43 43 46 42 41 44 42 43 41 41 42 42
50 50 49 52 50 57 63 55 53 50 42 35 28 28 28 27 25 28 28 31 31 31 30 29 28 29 32 33 34 36 37 38 39 41 42 43 46 45 47 52 47 45 49 47 47 46 45 45 46
56 53 54 53 54 58 61 60 48 42 36 29 26 27 25 26 27 27 27 29 30 30 30 30 30 31 33 33 34 36 36 38 39 41 42 45 47 49 50 54 52 53 55 53 53 52 51 50 48
61 59 56 53 54 58 59 50 39 34 28 27 26 22 25 27 28 28 27 28 28 30 30 30 31 33 35 35 36 37 37 35 38 40 42 46 50 51 52 55 57 58 49 50 53 55 55 56 55
69 66 66 62 58 55 56 39 35 32 28 25 26 24 25 27 28 29 29 28 29 30 31 31 33 35 37 39 37 36 36 37 38 41 41 45 47 47 49 52 50 50 51 52 56 63 63 61 61
63 59 57 58 57 56 45 40 32 32 28 29 24 26 27 27 30 32 31 31 32 34 35 36 35 37 40 42 40 40 40 42 42 43 44 44 45 45 48 50 56 49 53 53 64 67 62 70 68
54 47 48 48 45 45 41 37 34 35 36 35 28 31 30 32 34 36 35 35 37 37 38 38 38 38 40 43 45 46 46 45 46 48 49 51 51 50 52 53 54 53 56 59 59 65 70 70 76
40 40 38 40 39 42 39 39 37 40 43 43 38 35 33 35 37 38 39 40 39 38 39 37 38 41 42 44 46 48 49 51 51 51 52 53 54 54 53 55 58 58 66 65 63 64 73 75 76
36 35 35 40 42 42 41 45 45 45 45 44 43 41 41 39 39 40 41 42 44 44 41 40 39 39 42 44 47 49 52 54 56 56 56 55 57 59 56 62 64 69 71 59 63 64 67 67 72
37 38 39 40 36 38 43 51 47 48 46 49 47 48 45 44 44 44 44 44 45 45 44 44 44 44 44 46 48 49 52 55 55 58 58 60 60 56 72 55 53 60 58 49 46 46 49 55 48
38 40 35 41 44 48 50 50 50 53 51 53 56 50 48 48 48 49 50 50 50 50 49 48 48 48 48 50 51 53 52 54 56 57 57 60 69 59 56 56 65 62 72 47 52 53 55 53 53
36 41 41 43 50 51 53 53 54 38 59 62 57 52 52 53 54 55 55 56 58 58 58 56 54 53 52 52 54 56 55 52 50 51 55 57 59 64 65 54 60 60 55 45 46 45 47 50 50
48 47 49 48 52 51 53 54 45 50 52 58 62 61 57 58 59 60 60 61 62 62 62 61 60 56 53 50 50 51 50 48 47 48 49 54 58 61 68 64 45 41 44 43 48 48 49 51 56
57 58 57 59 52 54 57 60 44 49 57 60 59 61 62 59 58 57 59 60 62 62 63 64 63 55 51 50 46 41 44 47 48 47 44 44 45 40 39 39 39 42 42 44 46 49 51 54 48
Wind_Direction
261 285 303 311 326 346 263 324 321 333 341 342 348 342 325 299 299 290 296 306 309 313 318 327 326 323 323 323 329 336 334 335 330 327 327 334 344 347 355 351 341 330 315 319 325 312 311 297 240
260 274 289 301 331 1 270 311 308 325 330 338 347 344 331 310 308 303 303 308 308 310 315 320 324 324 323 319 325 327 328 318 319 312 313 326 335 344 341 340 334 322 310 321 317 304 304 288 261
257 266 278 294 314 264 265 300 314 321 327 336 345 343 334 327 324 314 304 303 305 307 313 314 318 317 314 313 320 319 317 302 302 303 305 317 328 339 337 328 329 324 311 306 268 244 225 232 225
264 269 279 292 285 291 290 302 311 319 322 328 338 335 335 324 322 320 314 297 300 301 302 309 313 314 309 309 313 311 309 293 295 310 304 302 315 326 329 322 320 314 292 289 267 237 225 217 224
265 268 278 288 291 285 292 299 307 309 318 323 329 331 333 338 320 307 316 308 297 301 297 299 306 310 307 307 306 305 305 292 285 299 304 293 297 313 316 312 311 301 286 284 267 245 232 233 235
263 267 276 291 272 287 294 298 301 310 318 320 327 332 329 336 334 308 301 306 298 294 295 291 295 302 299 302 301 304 305 291 281 292 298 286 285 293 295 295 299 288 262 249 254 253 246 244 245
263 268 272 269 269 287 292 295 302 309 314 319 322 327 326 335 333 328 295 291 290 289 291 291 288 295 294 296 297 299 302 294 283 290 289 277 275 282 282 281 282 285 273 258 260 258 262 262 258
263 266 270 271 275 275 294 294 301 305 309 315 318 325 327 326 327 325 309 285 284 282 282 286 290 289 291 291 291 292 300 296 284 283 287 272 270 271 275 273 271 273 271 267 263 269 267 265 268
265 268 271 274 272 272 294 294 298 300 308 313 315 319 321 325 325 322 311 289 276 276 275 280 287 285 287 283 286 286 291 294 281 278 283 273 272 271 269 268 266 260 256 255 256 256 259 267 268
264 266 269 267 274 275 288 291 296 301 310 311 312 316 317 320 322 321 315 291 279 272 272 280 285 283 279 279 278 283 283 289 282 275 277 275 273 271 272 270 267 264 257 253 252 252 256 261 267
264 267 265 269 271 280 287 290 292 297 306 305 308 314 316 318 318 318 315 295 285 278 278 282 282 278 277 277 278 276 279 285 286 275 278 277 279 277 272 271 268 265 263 260 259 259 256 259 259
264 265 267 270 275 282 285 288 295 297 303 298 301 307 311 313 311 314 307 295 285 281 278 278 280 280 281 276 277 274 275 278 278 274 270 275 277 276 275 274 273 269 264 263 264 263 264 264 264
265 263 267 271 278 281 283 288 290 296 299 295 301 304 303 308 309 303 298 294 276 271 275 274 269 272 276 277 274 278 275 274 275 272 269 269 273 278 279 277 274 272 272 271 270 271 271 269 271
268 266 267 273 279 282 288 290 290 300 295 296 299 298 296 302 301 291 290 284 272 271 277 279 277 272 274 274 271 273 274 270 270 267 265 268 271 276 277 275 273 272 272 273 270 268 269 272 269
267 268 270 275 279 282 286 289 296 297 294 300 299 295 294 295 292 281 278 278 276 277 277 280 279 278 277 275 275 275 269 270 268 266 266 267 271 274 274 276 276 276 275 272 270 269 267 265 267
266 271 275 276 277 281 283 292 297 295 295 303 303 302 297 295 294 279 276 279 277 275 280 280 282 280 279 278 277 275 270 266 267 270 267 265 268 271 274 276 280 279 277 274 271 269 267 267 267
270 273 272 277 283 289 288 287 294 290 292 294 298 294 291 294 292 282 276 277 276 274 275 275 274 273 272 273 272 271 269 266 269 273 266 267 267 268 271 274 276 276 275 275 273 270 269 270 268
271 270 272 277 286 284 284 286 288 290 291 296 300 299 295 298 293 284 279 278 276 275 276 275 272 273 272 270 268 268 271 270 271 270 269 266 267 266 266 271 272 269 269 273 272 271 269 268 268
267 270 272 275 279 281 284 289 288 285 286 287 293 294 299 299 298 294 286 283 282 278 276 278 276 271 272 270 268 268 267 265 267 265 266 265 266 266 266 268 270 271 271 268 265 268 269 268 269
273 273 272 274 276 281 288 285 285 283 279 286 286 294 303 299 296 295 295 289 285 283 283 282 279 277 275 270 268 269 270 272 269 267 266 263 265 270 275 276 277 276 277 278 268 264 267 269 270
272 273 273 272 270 278 287 275 279 273 280 279 283 294 301 305 301 298 294 290 289 289 289 285 280 276 276 276 270 270 270 269 267 268 266 266 270 274 278 284 283 276 277 279 275 272 272 276 273
271 273 268 267 267 274 273 275 272 278 276 282 284 292 294 300 302 300 294 290 290 290 289 282 276 272 276 279 276 270 267 268 268 270 272 271 271 274 276 279 282 276 275 277 276 272 273 274 275
271 261 257 260 263 268 266 268 277 272 281 277 283 288 297 299 297 290 290 290 291 290 290 287 282 275 271 273 275 275 276 270 267 268 269 269 271 271 273 273 273 275 275 274 275 279 279 272 273
255 251 251 255 256 258 261 263 267 273 279 281 289 291 292 292 291 288 286 287 287 287 286 283 283 282 278 272 270 272 273 273 271 271 272 273 274 273 271 270 271 276 271 270 277 274 275 266 271
243 247 249 251 253 259 266 267 265 270 273 279 285 287 289 288 288 285 283 282 283 283 281 280 280 281 281 278 274 271 270 271 273 273 272 273 271 273 274 275 275 276 262 270 265 271 271 266 270
238 246 248 256 263 263 258 257 266 271 274 279 279 279 281 280 282 280 278 277 277 277 278 279 278 275 275 276 273 270 267 268 269 272 275 277 271 268 284 274 254 264 270 272 279 283 274 268 268
247 245 255 255 254 257 259 262 271 276 274 274 273 280 279 280 279 278 276 275 274 275 277 277 277 277 277 277 275 272 267 265 265 266 268 273 261 273 262 268 283 278 280 296 296 295 300 301 294
249 258 265 265 263 265 261 266 274 282 275 277 280 279 278 279 277 276 275 275 275 277 279 279 278 276 277 275 272 272 273 273 271 267 265 264 268 268 270 279 278 280 285 310 311 308 309 311 311
258 256 266 271 273 275 276 268 277 271 269 279 282 281 281 278 275 273 275 277 276 277 278 280 280 279 278 276 276 275 275 276 274 272 272 270 269 268 269 275 302 309 308 307 307 310 311 310 308
273 275 277 279 279 279 277 267 276 280 278 278 278 282 281 281 283 283 281 278 278 280 281 282 281 280 278 277 276 272 269 269 271 268 270 272 278 284 295 297 298 302 304 308 314 312 310 312 307